Bennington, VT

7:59 PM EDT on April 29, 2017 (GMT -0400)
Morse State

Weather History for KDDH - December, 2012

Change the Weather History Date:

Sunday, December 9, 2012

  Actual Average Record
Temperature  
Mean Temperature 39 °F 30 °F  
Max Temperature 46 °F 38 °F 52 °F (2008)
Min Temperature 32 °F 23 °F -2 °F (2002)
Degree Days  
Heating Degree Days 26 35  
Month to date heating degree days 239 299  
Since 1 July heating degree days 1691 1912  
Cooling Degree Days 0 0  
Month to date cooling degree days 0 0  
Year to date cooling degree days 476 313  
Moisture  
Dew Point 32 °F    
Average Humidity 68    
Maximum Humidity 86    
Minimum Humidity 49    
Precipitation  
Precipitation 0.11 in 0.10 in 0.71 in (2014)
Month to date precipitation 0.93 0.87  
Year to date precipitation 30.58 38.78  
Sea Level Pressure  
Sea Level Pressure 30.16 in    
Wind  
Wind Speed 4 mph (WSW)    
Max Wind Speed 17 mph    
Max Gust Speed 24 mph    
Visibility 10 miles    
Events Rain    
T = Trace of Precipitation, MM = Missing Value Source: NWS Daily Summary

Daily Weather History Graph

Daily Weather History Graph

Search for Another Location

Airport or City:

Trip Planner

Search our weather history database for the weather conditions in past years. The results will help you decide how hot, cold, wet, or windy it might be!

Date:

Astronomy

Dec. 09, 2012 Rise Set
Actual Time 7:12 AM EST 4:18 PM EST
Civil Twilight 6:40 AM EST 4:50 PM EST
Nautical Twilight 6:04 AM EST 5:26 PM EST
Astronomical Twilight 5:30 AM EST 6:00 PM EST
Moon 2:37 AM EST (12/9) 1:27 PM EST (12/9)
Length of Visible Light 10h 10m
Length of Day
9h 06m
Waning Crescent, 19% of the Moon is Illuminated
Dec 9
Waning Crescent
Dec 13
New
Dec 20
First Quarter
Dec 28
Full
Jan 4
Last Quarter

Hourly Weather History & Observations

Time (EST) Temp. Windchill Dew Point Humidity Pressure Visibility Wind Dir Wind Speed Gust Speed Precip Events Conditions
12:39 AM 44.6 °F 42.2 °F 39.2 °F 81% 30.02 in 10.0 mi WSW 4.6 mph - N/A   Overcast
12:54 AM 45.0 °F 41.8 °F 39.9 °F 82% 30.04 in 10.0 mi SW 5.8 mph - N/A   Overcast
1:42 AM 44.6 °F 40.7 °F 39.2 °F 81% 30.04 in 10.0 mi West 6.9 mph - N/A   Overcast
1:51 AM 44.6 °F 40.7 °F 39.2 °F 81% 30.05 in 10.0 mi West 6.9 mph - N/A   Overcast
1:54 AM 44.1 °F 39.5 °F 39.0 °F 82% 30.06 in 10.0 mi WSW 8.1 mph - N/A   Overcast
2:54 AM 42.1 °F 37.7 °F 37.0 °F 82% 30.08 in 10.0 mi West 6.9 mph - N/A   Mostly Cloudy
3:52 AM 41.0 °F 35.8 °F 37.4 °F 87% 30.09 in 10.0 mi West 8.1 mph - N/A   Mostly Cloudy
3:54 AM 41.0 °F 35.8 °F 37.0 °F 86% 30.11 in 10.0 mi WSW 8.1 mph - N/A   Mostly Cloudy
4:08 AM 39.2 °F 33.6 °F 35.6 °F 87% 30.10 in 10.0 mi West 8.1 mph - N/A   Scattered Clouds
4:54 AM 39.0 °F 33.4 °F 34.0 °F 82% 30.15 in 10.0 mi West 8.1 mph - N/A   Partly Cloudy
5:54 AM 36.0 °F 31.1 °F 30.9 °F 82% 30.18 in 10.0 mi WNW 5.8 mph - N/A   Clear
6:54 AM 35.1 °F - 30.9 °F 85% 30.22 in 10.0 mi Calm Calm - N/A   Mostly Cloudy
7:54 AM 35.1 °F - 30.0 °F 82% 30.25 in 10.0 mi Calm Calm - N/A   Clear
8:54 AM 36.0 °F 33.3 °F 30.9 °F 82% 30.27 in 10.0 mi SW 3.5 mph - N/A   Clear
9:54 AM 37.9 °F 35.5 °F 28.9 °F 70% 30.26 in 10.0 mi North 3.5 mph - N/A   Clear
10:54 AM 39.0 °F - 28.9 °F 67% 30.25 in 10.0 mi Calm Calm - N/A   Clear
11:54 AM 41.0 °F - 28.9 °F 62% 30.23 in 10.0 mi Calm Calm - N/A   Clear
12:54 PM 43.0 °F - 28.0 °F 56% 30.23 in 10.0 mi Calm Calm - N/A   Clear
1:54 PM 44.1 °F - 28.9 °F 55% 30.21 in 10.0 mi Calm Calm - N/A   Partly Cloudy
2:54 PM 44.1 °F 41.5 °F 27.0 °F 51% 30.21 in 10.0 mi North 4.6 mph - N/A   Clear
3:54 PM 39.9 °F - 28.9 °F 65% 30.22 in 10.0 mi Calm Calm - N/A   Mostly Cloudy
4:54 PM 33.1 °F - 27.0 °F 78% 30.24 in 10.0 mi Calm Calm - N/A   Partly Cloudy
5:54 PM 33.1 °F - 28.9 °F 85% 30.23 in 10.0 mi Calm Calm - N/A   Overcast
6:54 PM 42.1 °F 37.1 °F 25.0 °F 51% 30.21 in 10.0 mi ESE 8.1 mph - N/A   Overcast
7:54 PM 41.0 °F 38.0 °F 26.1 °F 55% 30.18 in 10.0 mi ESE 4.6 mph - 0.00 in Rain Light Rain
8:54 PM 42.1 °F 36.6 °F 24.1 °F 49% 30.14 in 10.0 mi SE 9.2 mph 16.1 mph 0.00 in   Overcast
9:54 PM 39.9 °F 33.4 °F 26.1 °F 58% 30.12 in 10.0 mi SE 10.4 mph 17.3 mph 0.01 in Rain Light Rain
10:54 PM 37.0 °F 34.5 °F 32.0 °F 82% 30.08 in 4.0 mi NW 3.5 mph - 0.07 in Rain Light Rain
11:54 PM 39.9 °F 31.4 °F 34.0 °F 79% 30.03 in 9.0 mi SE 16.1 mph 23.0 mph 0.03 in Rain Light Rain